133  
ASUS43 KEAX 170010  
RWREAX  
 
WEATHER ROUNDUP FOR EASTERN KANSAS AND NORTHWEST MISSOURI  
NATIONAL WEATHER SERVICE KANSAS CITY/PLEASANT HILL MO  
600 PM CST WED JAN 16 2019  
 
KSZ040-057-103>105-MOZ028-029-037-043-170100-   
..KANSAS CITY METROPOLITAN AREA
 
 
 
CITY SKY/WX TMP DP RH WIND PRES REMARKS
 
K.C. INTL FRZ DRZL 32 30 92 E10 30.11S VSB 1 WCI 24  
6HR MIN TEMP: 32; 6HR MAX TEMP: 32; 6HR PCP: TRACE;  
 
K.C. DOWNTOWN CLOUDY 34 30 85 E8 30.11F FOG WCI 27  
6HR MIN TEMP: 34; 6HR MAX TEMP: 34;  
 
LEES SUMMIT CLOUDY 32 32 100 E9 30.11S FOG WCI 24  
6HR MIN TEMP: 31; 6HR MAX TEMP: 32;  
 
OLATHE - IXD CLOUDY 33 33 100 NE8 30.09S FOG WCI 26  
6HR MIN TEMP: 32; 6HR MAX TEMP: 33;  
 
OLATHE - OJC CLOUDY 31 31 100 E7 30.09S FOG WCI 24  
6HR MIN TEMP: 31; 6HR MAX TEMP: 32;  
 
LAWRENCE CLOUDY 33 31 92 E8 30.10S FOG WCI 26  
 

 
 
MOZ001>008-011>017-020>025-030>033-038>040-044>046-053-054-170100-   
..NORTHERN AND CENTRAL MISSOURI
 
 
 
CITY SKY/WX TMP DP RH WIND PRES REMARKS
 
ST. JOSEPH CLOUDY 32 31 96 E8 30.13S FOG WCI 25  
6HR MIN TEMP: 32; 6HR MAX TEMP: 33;  
 
MOSBY CLOUDY 32 32 100 E3 30.13F FOG  
WARRENSBURG CLOUDY 32 32 100 NE6 30.12S FOG WCI 26  
WHITEMAN AFB NOT AVBL  
CLINTON CLOUDY 34 34 100 NE6 30.12R FOG WCI 29  
SEDALIA FOG 31 31 100 E7 30.13S VSB 1/2 WCI 24  
6HR MIN TEMP: 31; 6HR MAX TEMP: 32;  
 
WARSAW NOT AVBL  
CHILLICOTHE N/A 32 31 96 E5 30.16S WCI 27  
6HR MIN TEMP: 32; 6HR MAX TEMP: 33;  
 
KIRKSVILLE CLOUDY 30 30 100 NE7 30.16S FOG WCI 23  
6HR MIN TEMP: 29; 6HR MAX TEMP: 32;  
 

 
 
MOZ041-047>049-056>058-063>065-088>090-097-170100-   
..EASTERN AND SOUTHERN MISSOURI
 
 
 
CITY SKY/WX TMP DP RH WIND PRES REMARKS
 
ST. LOUIS INTL CLOUDY 35 31 85 E8 30.20S WCI 29  
6HR MIN TEMP: 34; 6HR MAX TEMP: 37;  
 
SPIRIT OF STL CLOUDY 36 31 82 NE8 30.19S WCI 30  
COLUMBIA CLOUDY 34 33 96 E8 30.14S FOG WCI 27  
JEFFERSON CITY CLOUDY 35 33 92 E6 30.16S FOG WCI 30  
ROLLA CLOUDY 37 33 85 E9 30.13S WCI 30  
OSAGE BEACH CLOUDY 37 36 96 E5 30.12F FOG WCI 33  
SPRINGFIELD CLOUDY 44 37 76 SE6 30.07F  
BRANSON CLOUDY 43 39 87 E6 30.08F  
JOPLIN CLOUDY 46 40 79 SE7 30.05F  
WEST PLAINS CLOUDY 45 37 73 SE6 30.12S  
 

 
 
IAZ060-094-KSZ022-034>040-054-083-096-NEZ052-066-093-170100-    
..KANSAS...SOUTHEAST NEBRASKA AND IOWA
 
 
 
CITY SKY/WX TMP DP RH WIND PRES REMARKS
 
TOPEKA CLOUDY 33 31 92 E8 30.09F FOG WCI 26  
6HR MIN TEMP: 33; 6HR MAX TEMP: 34;  
 
MANHATTAN CLOUDY 33 32 96 E10 30.07F FOG WCI 25  
EMPORIA CLOUDY 32 32 100 NE9 30.05S FOG WCI 24  
CHANUTE CLOUDY 42 42 100 E7 30.04F FOG  
WICHITA DRIZZLE 41 40 96 NE6 30.01R FOG  
OMAHA CLOUDY 22 15 75 NE5 30.16S WCI 16  
LINCOLN CLOUDY 25 18 74 NE8 30.14S WCI 16  
FALLS CITY CLOUDY 26 25 96 NE6 30.12F FOG WCI 19  
LAMONI CLOUDY 28 26 92 E9 30.13F FOG WCI 19  
DES MOINES CLOUDY 26 21 81 E8 30.18S WCI 18  
 

 
 
 
 
CLICK HERE TO GO TO PREVIOUS BULLETINS.

The Nexlab MO Page
The Nexlab KS Page Main Text Page